Location: Oshawa
(43.9000°N, 78.8670°W)
Time: 04:18:41
(UTC-04:00)

Altair - Visible Passes

Search period start: 26 July 2016 00:00
Search period end: 05 August 2016 00:00
Orbit: 1502 x 1682 km, 47.2° (Epoch: 24 July)

Date Brightness Start Highest point End Pass type
(mag) Time Alt. Az. Time Alt. Az. Time Alt. Az.
26 Jul 7.6 01:03:29 10° W 01:12:42 73° N 01:22:11 10° E visible
26 Jul 7.4 03:08:31 10° WNW 03:17:51 87° SSW 03:27:32 10° ESE visible
26 Jul 7.9 05:13:29 10° WNW 05:21:57 39° SW 05:30:43 10° SSE visible
26 Jul 7.3 22:33:23 10° WSW 22:42:32 79° SSE 22:51:49 10° ENE visible
27 Jul 7.6 00:38:18 10° W 00:47:30 73° N 00:56:57 10° E visible
27 Jul 7.4 02:43:23 10° WNW 02:52:42 90° W 03:02:21 10° ESE visible
27 Jul 7.8 04:48:17 10° WNW 04:56:53 42° SW 05:05:47 10° SSE visible
27 Jul 7.4 22:08:17 10° SW 22:17:25 75° SSE 22:26:39 10° ENE visible
28 Jul 7.6 00:13:07 10° W 00:22:19 73° N 00:31:44 10° E visible
28 Jul 7.4 02:18:14 10° WNW 02:27:32 87° NNE 02:37:09 10° ESE visible
28 Jul 7.7 04:23:06 10° WNW 04:31:49 45° SW 04:40:49 10° SSE visible
28 Jul 7.4 21:43:12 10° SW 21:52:18 71° SSE 22:01:29 10° ENE visible
28 Jul 7.6 23:47:56 10° W 23:57:08 74° N 00:06:31 10° E visible
29 Jul 7.4 01:53:05 10° WNW 02:02:22 85° NNE 02:11:57 10° ESE visible
29 Jul 7.6 03:57:55 10° WNW 04:06:44 49° SW 04:15:50 10° SSE visible
29 Jul 7.4 21:18:07 10° SW 21:27:11 67° SSE 21:36:19 10° ENE visible
29 Jul 7.6 23:22:45 10° W 23:31:57 75° N 23:41:18 10° ENE visible
30 Jul 7.4 01:27:56 10° WNW 01:37:12 82° NNE 01:46:44 10° ESE visible
30 Jul 7.5 03:32:45 10° WNW 03:41:38 52° SW 03:50:50 10° SE visible
30 Jul 7.6 22:57:34 10° W 23:06:46 76° N 23:16:07 10° ENE visible
31 Jul 7.4 01:02:46 10° WNW 01:12:01 80° NNE 01:21:31 10° ESE visible
31 Jul 7.4 03:07:35 10° WNW 03:16:33 55° SW 03:25:48 10° SE visible
31 Jul 8.6 05:14:16 10° W 05:19:44 17° SW 05:25:19 10° SSW visible
31 Jul 7.6 22:32:23 10° W 22:41:35 78° NNW 22:50:55 10° ENE visible
01 Aug 7.5 00:37:37 10° WNW 00:46:51 78° NNE 00:56:18 10° E visible
01 Aug 7.4 02:42:26 10° WNW 02:51:27 59° SW 03:00:45 10° SE visible
01 Aug 8.4 04:48:45 10° W 04:54:44 19° SW 05:00:51 10° SSW visible
01 Aug 7.5 22:07:12 10° WSW 22:16:25 79° NNW 22:25:43 10° ENE visible
02 Aug 7.5 00:12:27 10° WNW 00:21:40 77° N 00:31:06 10° E visible
02 Aug 7.3 02:17:17 10° WNW 02:26:21 63° SSW 02:35:41 10° SE visible
02 Aug 8.4 04:23:18 10° W 04:29:43 21° SW 04:36:18 10° S visible
02 Aug 7.5 21:42:01 10° WSW 21:51:15 81° NNW 22:00:32 10° ENE visible
02 Aug 7.5 23:47:17 10° WNW 23:56:29 75° N 00:05:52 10° E visible
03 Aug 7.3 01:52:08 10° WNW 02:01:15 66° SSW 02:05:29 36° SE visible
03 Aug 8.4 03:57:54 10° W 04:13:21 - S 04:03:13 22° WSW visible
03 Aug 7.6 21:16:50 10° WSW 21:26:05 84° NNW 21:35:22 10° ENE visible
03 Aug 7.5 23:22:06 10° WNW 23:31:18 74° N 23:40:39 10° E visible
04 Aug 7.3 01:27:00 10° WNW 01:36:07 70° SSW 01:39:08 47° SE visible
04 Aug 8.5 03:32:33 10° W 03:37:00 22° WSW 03:37:00 22° WSW visible
04 Aug 7.6 20:51:40 10° WSW 21:00:56 86° NNW 21:10:11 10° ENE visible
04 Aug 7.6 22:56:55 10° W 23:06:07 73° N 23:15:26 10° E visible
